星链-6264 (STARLINK-6264 )

导读 | 豆包AI

STARLINK-6264是美国SpaceX公司星链计划的第二代低轨互联网卫星,于北京时间2023年5月4日发射入轨。星链计划旨在通过近地轨道大规模卫星组网,为全球提供高速低延迟宽带互联网服务,可覆盖偏远地区和极区高纬度区域,目前已拥有超九千颗在轨卫星,服务覆盖一百余个国家和地区。

基本信息
目录编号:
56429
目录名称:
STARLINK-6264
国际标识:
2023-061BH
轨道中心:
EARTH
卫星名称:
星链-6264
卫星全名:
星链-6264 (STARLINK-6264 )
卫星状态:
在轨 (已飞行1046 天)
发射日期:
2023-05-04 UTC
国别 :
美国 (US)
星等 :
--
轨道信息
数据来源 国际轨道数据
星历时间: 2026-03-14T22:13:17+0800
1天前
查看轨道信息
半长轴: 6937.251km
偏心率: 0.000117
轨道倾角: 43.004°
近地点辐角 271.239°
升交点赤经 144.690°
平近点角 88.832°
近地点: 558.302km
远地点: 559.926km
周期: 95.839分钟
每日圈数: 15.02525
详细信息
固有亮度:
5
最大亮度:
2.5
卫星平台:
Starlink v1.5
覆盖范围:
全球
运营商:
太空探索技术公司
运营商所在国:
美国
制造商(研发单位):
太空探索技术公司
制造商所在国:
美国
使用方式:
暂无
卫星简介
星链(Starlink)计划是由太空探索技术公司(SpaceX)提出的一个巨型低轨卫星互联网星座项目,计划在2019年至2024年间在太空搭建由约1.2万颗卫星组成的“星链”网络,其中1584颗将部署在地球上空550千米处的近地轨道,并从2020年开始工作。该卫星仍在工作。
2D轨道图
3D轨道图
轨道高度分析图
轨道倾角分析图
轨道综合分析图
查看轨道综合分析图